DW2959 Murcia ES current weather conditions

sailwx.info

Wind from 074 at 2 knots gusting 6

Air temperature 23.9° C
Dewpoint 17.4° C

Last reported at 2016-Sep-25 19:45 UTC.
Time now 2016-Sep-25 20:56 UTC

Location: N 38°00' W 001°02'.
View on Google Maps.

See reports from other nearby stations

  
Tides and Currents Weather Stations Pressure Air Temp Water Temp Dewpoint Dewpoint Depression Visibility Wind Speed Wind Dir Waves Ship Positions
date/time (UTC)wind fromknots sea level pressurealtimeterstation pressurevisibilityair tempwater tempwave heightnotes
2016-Sep-25 19:45 074 2 gusting 6 23.9
2016-Sep-25 19:29 121 23.9
2016-Sep-25 19:14 114 0 gusting 5 24.4
2016-Sep-25 18:59 143 0 gusting 6 24.4
2016-Sep-25 18:44 120 0 gusting 6 24.4
2016-Sep-25 18:28 113 1 gusting 6 24.4
2016-Sep-25 18:14 139 0 gusting 4 25.0
2016-Sep-25 17:58 152 0 gusting 5 25.6
2016-Sep-25 17:44 146 1 gusting 6 25.6
2016-Sep-25 17:28 108 0 gusting 6 26.1
2016-Sep-25 17:12 126 3 gusting 7 26.1
2016-Sep-25 16:58 148 1 gusting 7 26.7
2016-Sep-25 16:46 152 2 gusting 11 26.7
2016-Sep-25 16:28 112 4 gusting 12 26.7
2016-Sep-25 16:12 110 4 gusting 9 27.2
2016-Sep-25 15:58 128 5 gusting 13 27.2
2016-Sep-25 15:43 171 6 gusting 13 27.8
2016-Sep-25 15:27 155 6 gusting 11 27.8
2016-Sep-25 15:13 167 5 gusting 13 27.8
2016-Sep-25 14:57 121 4 gusting 17 27.8
2016-Sep-25 14:42 148 6 gusting 12 28.3
2016-Sep-25 14:26 158 5 gusting 14 28.3
2016-Sep-25 14:12 150 5 gusting 13 28.3
2016-Sep-25 13:56 164 5 gusting 9 28.9
2016-Sep-25 13:40 165 5 gusting 8 29.4
2016-Sep-25 13:31 108 1 gusting 5 29.4
2016-Sep-25 13:11 128 29.4
2016-Sep-25 12:56 152 0 gusting 5 29.4
2016-Sep-25 12:40 085 0 gusting 6 28.9
2016-Sep-25 12:26 130 28.3
2016-Sep-25 12:10 150 1 gusting 6 28.3
2016-Sep-25 11:55 065 0 gusting 4 28.3
2016-Sep-25 11:39 093 27.8
2016-Sep-25 11:25 103 1 gusting 6 27.8
2016-Sep-25 11:09 019 1 gusting 6 27.2
2016-Sep-25 10:54 084 0 gusting 6 26.1
2016-Sep-25 10:40 050 25.6
2016-Sep-25 10:24 030 1 gusting 5 25.0
2016-Sep-25 10:08 048 24.4
2016-Sep-25 09:53 049 1 gusting 4 24.4
2016-Sep-25 09:39 005 23.9
2016-Sep-25 09:23 005 1 gusting 5 23.3
2016-Sep-25 09:09 057 22.8
2016-Sep-25 08:52 092 22.2
2016-Sep-25 08:38 098 22.2
2016-Sep-25 08:23 099 21.7
2016-Sep-25 08:07 100 21.1
2016-Sep-25 07:53 101 20.6
2016-Sep-25 07:37 101 20.6
2016-Sep-25 07:22 101 20.0
2016-Sep-25 07:06 101 19.4
2016-Sep-25 06:51 101 18.3
2016-Sep-25 06:36 101 17.8
2016-Sep-25 06:21 101 17.8
2016-Sep-25 06:06 101 17.8
2016-Sep-25 05:51 101 17.8
2016-Sep-25 05:36 101 17.8
2016-Sep-25 05:21 101 17.8
2016-Sep-25 05:05 101 17.2
2016-Sep-25 04:52 101 17.2
2016-Sep-25 04:35 101 17.2
2016-Sep-25 04:20 101 17.8
2016-Sep-25 04:05 101 17.8
2016-Sep-25 03:50 101 17.8
2016-Sep-25 03:35 101 17.8
2016-Sep-25 03:20 101 18.3
2016-Sep-25 03:05 101 18.3
2016-Sep-25 02:50 101 18.3
2016-Sep-25 02:35 101 18.3
2016-Sep-25 02:20 101 18.3
2016-Sep-25 02:05 101 18.9
2016-Sep-25 01:50 101 18.9
2016-Sep-25 01:34 101 18.9
2016-Sep-25 01:19 101 18.9
2016-Sep-25 01:04 101 18.9
2016-Sep-25 00:49 101 19.4
2016-Sep-25 00:34 101 19.4
2016-Sep-25 00:19 101 19.4
2016-Sep-25 00:04 101 20.0
2016-Sep-24 23:49 101 20.0
2016-Sep-24 23:34 101 20.0
2016-Sep-24 23:19 101 20.0
2016-Sep-24 23:04 101 20.6
2016-Sep-24 22:49 101 0 gusting 2 20.6
2016-Sep-24 22:35 101 20.6
2016-Sep-24 22:19 101 21.1
2016-Sep-24 22:04 101 21.1
2016-Sep-24 21:49 101 21.1
2016-Sep-24 21:34 101 21.7
2016-Sep-24 21:17 101 21.7
2016-Sep-24 21:02 101 21.7
2016-Sep-24 20:47 101 22.2
2016-Sep-24 20:32 101 22.2
2016-Sep-24 20:18 101 22.2
2016-Sep-24 20:02 101 22.2
2016-Sep-24 19:47 101 22.8
2016-Sep-24 19:32 101 22.8
2016-Sep-24 19:17 101 22.8
2016-Sep-24 19:02 092 23.3
2016-Sep-24 18:47 100 0 gusting 3 23.3
2016-Sep-24 18:32 082 2 gusting 6 23.3
2016-Sep-24 18:24 100 3 gusting 7 23.9
2016-Sep-24 18:01 086 4 gusting 8 23.9
2016-Sep-24 17:46 074 6 gusting 9 24.4
2016-Sep-24 17:31 109 4 gusting 9 25.0
2016-Sep-24 17:16 080 3 gusting 9 25.6
2016-Sep-24 17:01 085 1 gusting 9 26.1
2016-Sep-24 16:46 092 2 gusting 8 26.1
2016-Sep-24 16:31 092 1 gusting 6 26.7
2016-Sep-24 16:17 105 0 gusting 8 26.7
2016-Sep-24 16:01 071 2 gusting 9 27.2
2016-Sep-24 15:46 108 0 gusting 6 27.2
2016-Sep-24 15:31 101 1 gusting 6 27.2
2016-Sep-24 15:16 076 0 gusting 8 27.2
2016-Sep-24 15:00 096 1 gusting 8 27.2
2016-Sep-24 14:45 096 4 gusting 8 27.2
2016-Sep-24 14:30 099 5 gusting 12 27.2
2016-Sep-24 14:15 138 3 gusting 7 27.2
2016-Sep-24 14:01 101 1 gusting 9 26.7
2016-Sep-24 13:45 081 4 gusting 9 26.7
2016-Sep-24 13:30 086 2 gusting 10 26.7
2016-Sep-24 13:19 096 2 gusting 6 27.2
2016-Sep-24 12:59 067 1 gusting 6 26.7
2016-Sep-24 12:44 066 3 gusting 8 27.2
2016-Sep-24 12:29 034 6 gusting 10 26.7
2016-Sep-24 12:14 031 5 gusting 10 26.7
2016-Sep-24 11:59 134 0 gusting 6 26.7
2016-Sep-24 11:44 067 1 gusting 6 26.7
2016-Sep-24 11:29 114 2 gusting 8 26.7
2016-Sep-24 11:14 098 2 gusting 6 26.7
2016-Sep-24 10:59 073 0 gusting 12 26.1
2016-Sep-24 10:44 037 5 gusting 9 25.6
2016-Sep-24 10:29 024 3 gusting 8 25.6
2016-Sep-24 10:13 032 1 gusting 7 25.0
2016-Sep-24 10:00 029 24.4
2016-Sep-24 09:43 039 3 gusting 7 23.9
2016-Sep-24 09:28 061 23.9
2016-Sep-24 09:13 047 2 gusting 4 23.9
2016-Sep-24 08:58 277 22.8
2016-Sep-24 08:43 254 22.2
2016-Sep-24 08:28 254 21.7
2016-Sep-24 08:12 254 0 gusting 2 21.1
2016-Sep-24 07:57 254 20.6
2016-Sep-24 07:42 254 20.6
2016-Sep-24 07:27 254 20.6
2016-Sep-24 07:12 254 20.0
2016-Sep-24 06:57 253 19.4
2016-Sep-24 06:42 253 18.9
2016-Sep-24 06:27 253 18.3
2016-Sep-24 06:12 253 18.3
2016-Sep-24 05:56 252 18.3
2016-Sep-24 05:41 252 18.9
2016-Sep-24 05:26 252 0 gusting 6 18.9
2016-Sep-24 05:11 215 1 gusting 3 18.9
2016-Sep-24 04:56 213 1 gusting 3 19.4
2016-Sep-24 04:41 212 19.4
2016-Sep-24 04:26 212 19.4
2016-Sep-24 04:11 212 3 gusting 6 19.4
2016-Sep-24 03:56 343 20.0
2016-Sep-24 03:43 350 4 gusting 8 20.0
2016-Sep-24 03:25 199 2 gusting 4 21.1
2016-Sep-24 03:10 145 20.6
2016-Sep-24 02:55 355 20.6
2016-Sep-24 02:40 355 20.6
2016-Sep-24 02:25 355 3 gusting 6 20.6
2016-Sep-24 02:10 073 20.6
2016-Sep-24 01:55 074 20.6
2016-Sep-24 01:40 073 20.0
2016-Sep-24 01:24 073 20.6
2016-Sep-24 01:09 073 20.6
2016-Sep-24 00:54 072 21.1
2016-Sep-24 00:39 073 21.1
2016-Sep-24 00:24 072 21.1
2016-Sep-24 00:09 073 21.7
2016-Sep-23 23:54 073 21.7
2016-Sep-23 23:39 073 21.7
2016-Sep-23 23:24 073 22.2
2016-Sep-23 23:09 073 22.2
2016-Sep-23 22:53 078 22.2
2016-Sep-23 22:38 078 22.8
2016-Sep-23 22:25 079 0 gusting 4 22.8
2016-Sep-23 22:08 074 22.8
2016-Sep-23 21:53 057 22.8
2016-Sep-23 21:38 080 1 gusting 4 22.8
2016-Sep-23 21:23 096 2 gusting 6 22.8
2016-Sep-23 21:08 117 3 gusting 7 22.8
2016-Sep-23 20:53 070 2 gusting 7 23.3
2016-Sep-23 20:38 105 0 gusting 7 23.3
2016-Sep-23 20:24 089 1 gusting 6 23.3
2016-Sep-23 20:07 079 2 gusting 4 23.9